McGuire AFB, NJ

6:25 PM EDT on March 22, 2017 (GMT -0400)
McGuire Air Force Base

Weather History for KWRI - June, 2013

Change the Weather History Date:

Sunday, June 16, 2013

  Actual Average Record
Temperature  
Mean Temperature 70 °F -  
Max Temperature 83 °F 77 °F 90 °F (2015)
Min Temperature 57 °F 58 °F 46 °F (1997)
Cooling Degree Days 6    
Growing Degree Days 20 (Base 50)    
Moisture  
Dew Point 62 °F    
Average Humidity 71    
Maximum Humidity 96    
Minimum Humidity 50    
Precipitation  
Precipitation 0.00 in - - ()
Sea Level Pressure  
Sea Level Pressure 29.91 in    
Wind  
Wind Speed 6 mph (SW)    
Max Wind Speed 21 mph    
Max Gust Speed 29 mph    
Visibility 10 miles    
Events Rain    
Averages and records for this station are not official NWS values.
T = Trace of Precipitation, MM = Missing Value Source: NWS Daily Summary

Daily Weather History Graph

Daily Weather History Graph

Search for Another Location

Airport or City:

Trip Planner

Search our weather history database for the weather conditions in past years. The results will help you decide how hot, cold, wet, or windy it might be!

Date:

Astronomy

Jun. 16, 2013 Rise Set
Actual Time 5:28 AM EDT 8:29 PM EDT
Civil Twilight 4:56 AM EDT 9:02 PM EDT
Nautical Twilight 4:14 AM EDT 9:44 PM EDT
Astronomical Twilight 3:25 AM EDT 10:32 PM EDT
Moon 1:02 PM EDT (6/16) 12:33 AM EDT (6/16)
Length of Visible Light 16h 06m
Length of Day
15h 00m
Waxing Crescent, 49% of the Moon is Illuminated
Jun 16
Waxing Crescent
Jun 16
First Quarter
Jun 23
Full
Jun 30
Last Quarter
Jul 8
New

Hourly Weather History & Observations

Time (EDT) Temp. Heat Index Dew Point Humidity Pressure Visibility Wind Dir Wind Speed Gust Speed Precip Events Conditions
12:58 AM 62.6 °F - 59.0 °F 88% 30.00 in 10.0 mi WSW 4.6 mph - N/A   Clear
1:58 AM 61.7 °F - 57.9 °F 87% 30.00 in 10.0 mi SW 4.6 mph - N/A   Clear
2:58 AM 60.8 °F - 56.7 °F 86% 30.01 in 10.0 mi Calm Calm - N/A   Clear
3:58 AM 57.9 °F - 56.8 °F 96% 30.00 in 10.0 mi Calm Calm - N/A   Partly Cloudy
4:58 AM 59.4 °F - 57.9 °F 95% 30.00 in 10.0 mi SSW 2.3 mph - N/A   Mostly Cloudy
5:58 AM 60.4 °F - 57.6 °F 90% 29.99 in 10.0 mi Calm Calm - N/A   Overcast
6:58 AM 62.2 °F - 58.8 °F 89% 29.98 in 10.0 mi Calm Calm - N/A   Mostly Cloudy
7:58 AM 66.2 °F - 59.7 °F 80% 29.98 in 10.0 mi SW 1.2 mph - N/A   Overcast
8:58 AM 66.7 °F - 59.7 °F 78% 29.97 in 10.0 mi South 3.5 mph - N/A   Mostly Cloudy
9:40 AM 68.0 °F - 60.8 °F 78% 29.94 in 10.0 mi SSW 2.3 mph - N/A Rain Light Rain
9:49 AM 68.0 °F - 60.8 °F 78% 29.94 in 10.0 mi SSW 2.3 mph - N/A   Overcast
9:58 AM 69.1 °F - 61.2 °F 76% 29.94 in 10.0 mi SSE 2.3 mph - 0.00 in   Overcast
10:38 AM 75.2 °F - 60.8 °F 61% 29.92 in 10.0 mi Variable 3.5 mph - N/A Rain Light Rain
10:49 AM 77.0 °F - 59.0 °F 54% 29.92 in 10.0 mi South 3.5 mph - N/A   Mostly Cloudy
10:58 AM 77.2 °F - 59.4 °F 54% 29.92 in 10.0 mi SW 5.8 mph - 0.00 in   Mostly Cloudy
11:07 AM 78.8 °F - 59.0 °F 51% 29.91 in 10.0 mi Variable 4.6 mph - N/A Rain Light Rain
11:08 AM 78.8 °F - 59.0 °F 51% 29.91 in 10.0 mi Variable 3.5 mph - N/A   Mostly Cloudy
11:58 AM 80.2 °F 81.6 °F 63.3 °F 56% 29.90 in 10.0 mi WSW 13.8 mph - 0.00 in   Partly Cloudy
12:58 PM 82.4 °F 84.2 °F 65.3 °F 56% 29.86 in 10.0 mi SW 13.8 mph 21.9 mph N/A   Scattered Clouds
1:38 PM 82.4 °F 83.9 °F 64.4 °F 54% 29.84 in 10.0 mi WSW 11.5 mph - N/A   Mostly Cloudy
1:58 PM 82.9 °F 84.6 °F 64.6 °F 54% 29.84 in 10.0 mi WSW 16.1 mph - N/A   Mostly Cloudy
2:39 PM 84.2 °F 85.6 °F 64.4 °F 51% 29.81 in 10.0 mi West 15.0 mph 21.9 mph N/A   Scattered Clouds
2:58 PM 83.3 °F 84.3 °F 62.6 °F 50% 29.82 in 10.0 mi WSW 16.1 mph 25.3 mph N/A   Mostly Cloudy
3:58 PM 83.1 °F 84.2 °F 63.3 °F 51% 29.82 in 10.0 mi SW 19.6 mph 26.5 mph N/A   Scattered Clouds
4:58 PM 81.7 °F 82.7 °F 62.2 °F 52% 29.83 in 10.0 mi WSW 20.7 mph 28.8 mph N/A   Scattered Clouds
5:58 PM 79.7 °F - 63.5 °F 58% 29.83 in 10.0 mi WSW 12.7 mph - N/A   Mostly Cloudy
6:58 PM 79.0 °F - 63.5 °F 59% 29.84 in 10.0 mi West 11.5 mph - N/A   Scattered Clouds
7:58 PM 75.2 °F - 65.7 °F 72% 29.84 in 10.0 mi WSW 11.5 mph - N/A   Scattered Clouds
8:58 PM 72.0 °F - 65.8 °F 81% 29.86 in 10.0 mi WSW 12.7 mph - N/A   Clear
9:58 PM 69.6 °F - 65.8 °F 88% 29.87 in 10.0 mi WSW 5.8 mph - N/A   Clear
10:58 PM 67.6 °F - 65.7 °F 93% 29.87 in 10.0 mi SW 8.1 mph - N/A   Partly Cloudy
11:58 PM 66.7 °F - 65.3 °F 95% 29.87 in 10.0 mi WSW 3.5 mph - N/A   Clear